Back to catalog

NOAA 16 DEB

AliveSSO
NORAD 41066·DEBRIS·🇺🇸 United States

Launched Sep 21, 2000 from Vandenberg Space Force Base

Loading…

Next Passes (next 24 hours)

TLE

FreshSource: Space-Track

Epoch: Sep 14, 2026, 11:05 UTC

1 41066U 00055Z   26257.46218612  .00000568  00000-0  28044-3 0  9999
2 41066  98.6563 335.0739 0015416   8.8350 351.3096 14.21198058558719

Track NOAA 16 DEB in real time with AllMySat

Download on the App Store